Location: Landeleau
(48.2273°N, 3.7285°W)
Time: 13:13:33
(UTC+00:00)

NOSS 3-4 (C) - Pass Details

Date: 30 March 2020
Orbit: 897 x 1316 km, 63.4° (Epoch: 21 May)

Event Time Altitude Azimuth Distance (km) Brightness Sun altitude
Rises 21:18:57 0° 318° (NW) 3,785 7.9 -24.5°
Reaches altitude 10° 21:21:29 10° 321° (NW) 2,886 7.0 -24.8°
Maximum altitude 21:28:22 70° 45° (NE) 1,212 3.8 -25.7°
Enters shadow 21:30:15 51° 107° (ESE) 1,430 3.9 -25.9°
